Regional Weather Roundup
Issued by NWS

Home | Current Version | Previous Version | Text Only | Print | Product List | Glossary On
Versions: 1 2 3 4 5 6 7 8 9 10 11 12 13 14 15 16 17 18 19 20 21 22 23 24 25 26 27 28 29 30 31 32 33 34 35 36 37 38 39 40 41 42 43 44 45 46 47 48 49 50
000
ASUS43 KDMX 311007
RWRIA

WEATHER ROUNDUP FOR IOWA
NATIONAL WEATHER SERVICE DES MOINES IA
500 AM CDT FRI JUL 31 2015

NOTE: "FAIR" INDICATES FEW OR NO CLOUDS BELOW 12,000 FEET WITH NO
SIGNIFICANT WEATHER AND/OR OBSTRUCTIONS TO VISIBILITY.

* - THESE STATIONS ARE NOT NWS STATIONS...THUS NOT UNDER NWS
QUALITY CONTROL.  THEY ALSO DO NOT REPORT WEATHER SUCH
AS PRECIPITATION OR FOG.

IAZ001>003-012>014-020>022-031>034-043>046-311100-
   NORTHWEST IOWA

CITY           SKY/WX    TMP DP  RH WIND       PRES   REMARKS
CARROLL *      CLEAR     68  64  88 W10       30.12S
CHEROKEE *     CLEAR     66  64  94 CALM      30.14S
DENISON *      CLEAR     66  66 100 CALM      30.12S
LE MARS *      CLEAR     66  64  94 CALM      30.14F
ORANGE CITY *  CLEAR     63  61  94 CALM      30.14S
SHELDON *      PTCLDY    59  57  94 CALM      30.13S
SIOUX CITY     CLEAR     69  61  75 CALM      30.11F
SPENCER          N/A     63  59  87 W3        30.13S
STORM LAKE *   CLEAR     64  63  94 NW6       30.15R
$$

IAZ055>058-069>071-079>083-090>094-311100-
   SOUTHWEST IOWA

CITY           SKY/WX    TMP DP  RH WIND       PRES   REMARKS
ATLANTIC *     MOCLDY    70  66  88 SW6       30.16R
AUDUBON *      CLEAR     68  64  88 SW3       30.15S
CLARINDA *     PTCLDY    66  66 100 CALM      30.17S
COUNCIL BLFS * DRIZZLE   68  64  88 W13G18    30.18R
CRESTON *      MOCLDY    68  64  88 W7        30.17R
HARLAN  *      PTCLDY    68  68 100 S3        30.18R
LAMONI         MOCLDY    71  63  75 SW7       30.14F
RED OAK *      CLOUDY    66  66 100 CALM      30.17R
SHENANDOAH *   CLEAR     66  64  94 CALM      30.16S
$$

IAZ047>049-059>061-072>074-084-311100-
   CENTRAL IOWA

CITY           SKY/WX    TMP DP  RH WIND       PRES   REMARKS
AMES           PTCLDY    63  61  93 SW6       30.10S
ANKENY *       CLEAR     66  66 100 W5        30.10S
CHARITON *     CLEAR     68  63  83 W7        30.12F
DES MOINES     MOCLDY    71  63  75 W5        30.10S
GRINNELL*      CLEAR     66  63  88 SW7       30.10S
KNOXVILLE *    CLEAR     68  63  83 SW8       30.10S
MARSHALLTOWN   CLEAR     64  62  93 W5        30.09R
PELLA *        CLEAR     70  68  94 W3        30.11S
PERRY *          N/A     66  64  94 W6        30.11S
$$

IAZ004>006-015-016-023>025-035-036-311100-
   NORTH CENTRAL IOWA

CITY           SKY/WX    TMP DP  RH WIND       PRES   REMARKS
ALGONA *       CLEAR     64  61  88 W6        30.12S
CLARION *      CLEAR     64  63  94 NW5       30.11S
ESTHERVILLE    MOCLDY    60  59  96 W7        30.12S
FORT DODGE *   CLEAR     64  59  82 CALM      30.13S
MASON CITY     CLEAR     63  61  93 W7        30.11R
FOREST CITY *  CLEAR     61  61 100 CALM      30.10S
IOWA FALLS *     N/A     64  61  88 W5        30.12R
$$

IAZ007>011-017>019-026>030-037>042-050>054-066-311100-
   NORTHEAST IOWA

CITY           SKY/WX    TMP DP  RH WIND       PRES   REMARKS
CEDAR RAPIDS   CLEAR     64  64 100 W6        30.07S
CHARLES CITY * CLEAR     64  64 100 W6        30.08S
CLINTON *      CLEAR     63  63 100 W7        30.07F
DECORAH *      PTCLDY    64  63  94 SW3       30.05S
DUBUQUE        MOCLDY    63  62  97 SW8       30.05S
MONTICELLO *   CLEAR     63  63 100 CALM      30.05S
OELWEIN *        N/A     64  64 100 W6        30.08S
WATERLOO       CLEAR     66  64  93 W5        30.07R
$$

IAZ064-065-067-068-078-311100-
   EAST CENTRAL IOWA

CITY           SKY/WX    TMP DP  RH WIND       PRES   REMARKS
DAVENPORT      CLEAR     65  63  93 W6        30.07F
IOWA CITY      CLEAR     66  62  87 W5        30.08S
MT. PLEASANT * CLEAR     66  63  88 SW5       30.10S
MUSCATINE *    CLEAR     68  64  88 CALM      30.08S
QUAD CITIES    CLEAR     66  63  90 SW5       30.06F
$$

IAZ062-063-075>077-085>089-095>099-311100-
   SOUTHEAST IOWA

CITY           SKY/WX    TMP DP  RH WIND       PRES   REMARKS
BURLINGTON     CLEAR     68  65  90 W5        30.09F
FAIRFIELD *    CLEAR     66  63  88 W6        30.10F
FORT MADISON * CLEAR     68  64  88 W5        30.11S
KEOKUK *       CLEAR     68  64  88 W5        30.10S
OSKALOOSA *      N/A     64  63  94 SW5       30.10F
CENTERVILLE *  CLEAR     66  63  88 SW7       30.14F
OTTUMWA        CLEAR     65  63  93 W6        30.09S
WASHINGTON *   CLEAR     66  64  94 W7        30.10F
$$

ABBREVIATIONS USED IN REMARKS
   TC - TEMPERATURES IN CELSIUS
  WCI - WIND CHILL INDEX
   HX - HEAT INDEX
  VSB - VISIBILITY
$$



USA.gov is the U.S. government's official web portal to all federal, state and local government web resources and services.